• în România
  • Lista ţărilor
  • Pe 7 zile
  • Temperatura apei
  • Hartă satelitară
  • Meteo pe hartă
  • Widget-uri
  • user-avatar
    Intrare

    Meteo pe oră la Rumyancevo

    Astăzi, 16 Iulie, Luni

    Timp Temperatura Precipitaţii Vânt Presiune Umiditate
    00:00 +20°C° 1,7 mm 3 m/s 737 mmHg 91%
    01:00 +20°C° 0,3 mm 3 m/s 737 mmHg 91%
    02:00 +20°C° 0,3 mm 3 m/s 737 mmHg 92%
    03:00 +19°C° 0 mm 2 m/s 737 mmHg 92%
    04:00 +19°C° 0,2 mm 3 m/s 737 mmHg 92%
    05:00 +19°C° 0,2 mm 3 m/s 737 mmHg 93%
    06:00 +20°C° 0,2 mm 3 m/s 737 mmHg 93%
    07:00 +21°C° 0,4 mm 4 m/s 737 mmHg 90%
    08:00 +22°C° 0,4 mm 4 m/s 737 mmHg 87%
    09:00 +25°C° 0 mm 4 m/s 737 mmHg 81%
    10:00 +26°C° 0,9 mm 5 m/s 737 mmHg 77%
    11:00 +27°C° 0,9 mm 5 m/s 737 mmHg 73%
    12:00 +28°C° 0,9 mm 5 m/s 737 mmHg 69%
    13:00 +28°C° 0,4 mm 5 m/s 736 mmHg 69%
    14:00 +29°C° 0,4 mm 5 m/s 736 mmHg 67%
    15:00 +29°C° 0,4 mm 5 m/s 736 mmHg 66%
    16:00 +29°C° 0,9 mm 4 m/s 736 mmHg 70%
    17:00 +28°C° 0,9 mm 4 m/s 735 mmHg 74%
    18:00 +27°C° 0,9 mm 3 m/s 735 mmHg 78%
    19:00 +26°C° 0,9 mm 3 m/s 735 mmHg 80%
    20:00 +25°C° 0,9 mm 3 m/s 735 mmHg 82%
    21:00 +22°C° 0,9 mm 4 m/s 735 mmHg 85%
    22:00 +22°C° 0,4 mm 4 m/s 735 mmHg 87%
    23:00 +21°C° 0,4 mm 4 m/s 735 mmHg 90%

    Mâine, 17 Iulie, Marţi

    Timp Temperatura Precipitaţii Vânt Presiune Umiditate
    00:00 +21°C° 0,4 mm 4 m/s 735 mmHg 92%
    01:00 +21°C° 0,1 mm 4 m/s 735 mmHg 93%
    02:00 +20°C° 0,1 mm 4 m/s 735 mmHg 94%
    03:00 +20°C° 0,1 mm 4 m/s 735 mmHg 95%
    04:00 +20°C° 0,1 mm 4 m/s 735 mmHg 95%
    05:00 +20°C° 0,1 mm 4 m/s 734 mmHg 95%
    06:00 +21°C° 0,1 mm 5 m/s 734 mmHg 95%
    07:00 +22°C° 0,1 mm 5 m/s 734 mmHg 91%
    08:00 +23°C° 0,1 mm 6 m/s 734 mmHg 87%
    09:00 +24°C° 0,1 mm 6 m/s 734 mmHg 83%
    10:00 +26°C° 0,6 mm 6 m/s 734 mmHg 80%
    11:00 +27°C° 0,6 mm 6 m/s 734 mmHg 78%
    12:00 +27°C° 0,6 mm 6 m/s 734 mmHg 75%
    13:00 +27°C° 0,6 mm 6 m/s 733 mmHg 74%
    14:00 +27°C° 0,6 mm 6 m/s 733 mmHg 74%
    15:00 +27°C° 0,6 mm 6 m/s 733 mmHg 73%
    16:00 +27°C° 0,6 mm 5 m/s 733 mmHg 76%
    17:00 +27°C° 0,6 mm 4 m/s 733 mmHg 78%
    18:00 +26°C° 0,6 mm 4 m/s 733 mmHg 81%
    19:00 +25°C° 0,3 mm 4 m/s 733 mmHg 84%
    20:00 +23°C° 0,3 mm 4 m/s 732 mmHg 87%
    21:00 +21°C° 0,3 mm 3 m/s 732 mmHg 90%
    22:00 +21°C° 0 mm 3 m/s 732 mmHg 92%
    23:00 +20°C° 0 mm 3 m/s 732 mmHg 94%

    Poimâine, 18 Iulie, Miercuri

    Timp Temperatura Precipitaţii Vânt Presiune Umiditate
    00:00 +20°C° 0 mm 3 m/s 732 mmHg 95%
    01:00 +19°C° 0 mm 4 m/s 731 mmHg 95%
    02:00 +19°C° 0 mm 4 m/s 731 mmHg 96%
    03:00 +19°C° 0 mm 5 m/s 731 mmHg 96%
    04:00 +19°C° 0,2 mm 5 m/s 731 mmHg 95%
    05:00 +19°C° 0,2 mm 6 m/s 731 mmHg 95%
    06:00 +19°C° 0,2 mm 6 m/s 730 mmHg 95%
    07:00 +19°C° 0,2 mm 6 m/s 730 mmHg 94%
    08:00 +20°C° 0,2 mm 6 m/s 730 mmHg 94%
    09:00 +20°C° 0,2 mm 6 m/s 730 mmHg 94%
    10:00 +20°C° 0,2 mm 6 m/s 730 mmHg 91%
    11:00 +21°C° 0,2 mm 5 m/s 730 mmHg 89%
    12:00 +21°C° 0,2 mm 5 m/s 730 mmHg 86%
    13:00 +21°C° 0,2 mm 5 m/s 730 mmHg 85%
    14:00 +22°C° 0,2 mm 5 m/s 730 mmHg 83%
    15:00 +22°C° 0,2 mm 5 m/s 730 mmHg 81%
    16:00 +22°C° 0,1 mm 5 m/s 730 mmHg 81%
    17:00 +22°C° 0,1 mm 5 m/s 730 mmHg 81%
    18:00 +22°C° 0,1 mm 4 m/s 730 mmHg 81%
    19:00 +21°C° 0,1 mm 4 m/s 730 mmHg 85%
    20:00 +20°C° 0,1 mm 3 m/s 730 mmHg 90%
    21:00 +19°C° 0,1 mm 3 m/s 730 mmHg 94%
    22:00 +19°C° 0 mm 3 m/s 730 mmHg 95%
    23:00 +18°C° 0 mm 3 m/s 730 mmHg 96%

    19 Iulie, Joi

    Timp Temperatura Precipitaţii Vânt Presiune Umiditate
    00:00 +18°C° 0 mm 3 m/s 730 mmHg 97%
    01:00 +18°C° 0,1 mm 2 m/s 730 mmHg 97%
    02:00 +18°C° 0,1 mm 2 m/s 730 mmHg 98%
    03:00 +18°C° 0,1 mm 2 m/s 730 mmHg 98%
    04:00 +18°C° 0,1 mm 2 m/s 731 mmHg 97%
    05:00 +18°C° 0,1 mm 2 m/s 731 mmHg 97%
    06:00 +19°C° 0,1 mm 2 m/s 731 mmHg 97%
    07:00 +19°C° 0,2 mm 2 m/s 731 mmHg 95%
    08:00 +20°C° 0,2 mm 2 m/s 731 mmHg 93%
    09:00 +20°C° 0,2 mm 2 m/s 732 mmHg 92%
    10:00 +21°C° 0,6 mm 2 m/s 732 mmHg 87%
    11:00 +22°C° 0,6 mm 3 m/s 732 mmHg 83%
    12:00 +24°C° 0,6 mm 3 m/s 732 mmHg 79%
    13:00 +25°C° 0,9 mm 3 m/s 732 mmHg 78%
    14:00 +25°C° 0,9 mm 3 m/s 732 mmHg 77%
    15:00 +26°C° 0,9 mm 3 m/s 732 mmHg 76%
    16:00 +26°C° 0,8 mm 3 m/s 732 mmHg 77%
    17:00 +26°C° 0,8 mm 3 m/s 733 mmHg 79%
    18:00 +26°C° 0,8 mm 3 m/s 733 mmHg 80%
    19:00 +25°C° 0,3 mm 3 m/s 733 mmHg 84%
    20:00 +23°C° 0,3 mm 2 m/s 733 mmHg 88%
    21:00 +21°C° 0,3 mm 2 m/s 733 mmHg 92%
    22:00 +21°C° 0,1 mm 2 m/s 733 mmHg 93%
    23:00 +20°C° 0,1 mm 3 m/s 734 mmHg 94%

    20 Iulie, Vineri

    Timp Temperatura Precipitaţii Vânt Presiune Umiditate
    00:00 +20°C° 0,1 mm 3 m/s 734 mmHg 95%
    01:00 +20°C° 0 mm 3 m/s 734 mmHg 95%
    02:00 +19°C° 0 mm 3 m/s 734 mmHg 96%
    03:00 +19°C° 0 mm 3 m/s 734 mmHg 96%
    04:00 +19°C° 0 mm 3 m/s 735 mmHg 96%
    05:00 +19°C° 0 mm 3 m/s 735 mmHg 95%
    06:00 +20°C° 0 mm 3 m/s 735 mmHg 95%
    07:00 +21°C° 0 mm 3 m/s 735 mmHg 91%
    08:00 +22°C° 0 mm 3 m/s 735 mmHg 87%
    09:00 +25°C° 0 mm 4 m/s 736 mmHg 82%
    10:00 +26°C° 0,2 mm 4 m/s 736 mmHg 78%
    11:00 +27°C° 0,2 mm 4 m/s 736 mmHg 74%
    12:00 +28°C° 0,2 mm 4 m/s 736 mmHg 70%
    13:00 +28°C° 0,3 mm 4 m/s 736 mmHg 69%
    14:00 +28°C° 0,3 mm 4 m/s 736 mmHg 68%
    15:00 +29°C° 0,3 mm 5 m/s 736 mmHg 67%
    16:00 +28°C° 0,4 mm 4 m/s 736 mmHg 70%
    17:00 +28°C° 0,4 mm 3 m/s 736 mmHg 73%
    18:00 +27°C° 0,4 mm 3 m/s 736 mmHg 76%
    19:00 +26°C° 0,1 mm 3 m/s 736 mmHg 80%
    20:00 +24°C° 0,1 mm 3 m/s 736 mmHg 84%
    21:00 +23°C° 0,1 mm 2 m/s 736 mmHg 88%
    22:00 +21°C° 0 mm 2 m/s 736 mmHg 90%
    23:00 +21°C° 0 mm 2 m/s 736 mmHg 92%

    21 Iulie, Sâmbătă

    Timp Temperatura Precipitaţii Vânt Presiune Umiditate
    00:00 +20°C° 0 mm 2 m/s 736 mmHg 93%
    01:00 +20°C° 0 mm 2 m/s 736 mmHg 94%
    02:00 +20°C° 0 mm 2 m/s 736 mmHg 94%
    03:00 +19°C° 0 mm 2 m/s 736 mmHg 95%
    04:00 +19°C° 0 mm 2 m/s 736 mmHg 95%
    05:00 +20°C° 0 mm 2 m/s 736 mmHg 94%
    06:00 +20°C° 0 mm 2 m/s 736 mmHg 94%
    07:00 +21°C° 0 mm 3 m/s 736 mmHg 89%
    08:00 +24°C° 0 mm 3 m/s 736 mmHg 84%
    09:00 +25°C° 0 mm 4 m/s 736 mmHg 79%
    10:00 +26°C° 0,2 mm 4 m/s 736 mmHg 74%
    11:00 +27°C° 0,2 mm 4 m/s 736 mmHg 69%
    12:00 +28°C° 0,2 mm 4 m/s 736 mmHg 64%
    13:00 +28°C° 1,2 mm 4 m/s 736 mmHg 66%
    14:00 +28°C° 1,2 mm 5 m/s 736 mmHg 67%
    15:00 +28°C° 1,2 mm 5 m/s 736 mmHg 68%
    16:00 +27°C° 0,8 mm 4 m/s 736 mmHg 72%
    17:00 +27°C° 0,8 mm 4 m/s 736 mmHg 75%
    18:00 +26°C° 0,8 mm 3 m/s 735 mmHg 78%
    19:00 +25°C° 0,2 mm 3 m/s 736 mmHg 81%
    20:00 +24°C° 0,2 mm 3 m/s 736 mmHg 84%
    21:00 +22°C° 0,2 mm 3 m/s 736 mmHg 87%
    22:00 +21°C° 0 mm 3 m/s 735 mmHg 88%
    23:00 +21°C° 0 mm 2 m/s 735 mmHg 89%
    Arată mai mult